User: anonymous   Login
Location: Unspecified
(0.0000°N, 0.0000°E)
Time: 18:59:13
(UTC+00:00)
Language:

ZHUHAI-1 03C - Orbit

View from above orbital plane
View from above orbital plane
View from above satellite
View from above satellite

Ground track
Ground track

The orbit is defined by the following mean orbital elements,

1 44537U          26145.60928060 +.00000000 +00000-0 +90181-3 0 00007
2 44537  97.5358 315.6748 0008053 282.1613  77.8765 16.05724378    08
Epoch (UTC): 25 May 2026 14:37:21
Eccentricity: 0.0008053
inclination: 97.5358°
perigee height: 253 km
apogee height: 264 km
right ascension of ascending node: 315.6748°
argument of perigee: 282.1613°
revolutions per day: 16.05724378
mean anomaly at epoch: 77.8765°

The dashed part of the orbit path shows where the satellite is in the earth's shadow,  

DLR